{"data":{"norad_id":67725,"epoch":"2026-09-19T02:31:13.953504Z","epoch_age_seconds":186967,"freshness":"STALE","line1":"1 67725U 26026E   26262.10502261  .00017119  00000+0  53134-3 0  9995","line2":"2 67725  97.2850 313.9076 0000190   5.9035 354.2210 15.33448657 33763","mean_motion":15.33448657,"eccentricity":1.9e-5,"inclination_deg":97.285,"raan_deg":313.9076,"arg_perigee_deg":5.9035,"mean_anomaly_deg":354.221,"bstar":0.00053134,"rev_number":3376,"period_min":93.90598070738,"perigee_km":465.40226412409,"apogee_km":465.66232355726,"semimajor_km":6843.6692938407,"source":"CELESTRAK","updated_at":"2026-09-20T09:00:43.657086Z"}}